EW2973 Weather Reports


Display with metric or nautical units.
time (UTC)temp
F
wind
direction
speed
MPH
gust
MPH
rain 1hr
in
rain 24hr
in
rain mn
in
humidity
%
barometer
mb
20260905031527 72 108 0.0 0.0 0.00 0.33 0.33 93 1016.0
20260905030032 72 120 0.0 0.0 0.00 0.33 0.33 93 1016.1
20260905024533 72 120 0.0 0.0 0.00 0.33 0.33 93 1016.1
20260905023031 72 174 0.0 0.0 0.00 0.33 0.33 93 1016.1
20260905021536 72 174 0.0 0.0 0.00 0.33 0.33 93 1016.1
20260905020030 73 174 0.0 0.0 0.00 0.33 0.33 92 1016.1
20260905014519 73 174 0.0 0.0 0.00 0.33 0.33 92 1015.8
20260905013015 73 174 0.0 0.0 0.00 0.33 0.33 91 1015.8
20260905011550 74 174 0.0 0.0 0.00 0.33 0.33 91 1015.8
20260905010038 74 174 0.0 0.0 0.00 0.33 0.33 90 1015.9
20260905004535 74 174 0.0 0.0 0.00 0.33 0.33 89 1015.7
20260905003041 75 174 0.0 0.0 0.00 0.33 0.33 87 1015.2
20260905001524 76 174 0.0 0.0 0.00 0.33 0.33 85 1015.3
20260905000023 77 174 0.0 0.0 0.00 0.33 0.33 85 1015.1
20260904234515 77 174 0.0 0.0 0.00 0.33 0.33 83 1015.2
20260904233032 78 174 0.0 0.0 0.00 0.33 0.33 82 1015.2
20260904231513 79 174 0.0 0.0 0.00 0.33 0.33 80 1015.5
20260904230039 79 174 0.0 2.0 0.00 0.33 0.33 80 1015.2
20260904224530 78 166 0.0 0.0 0.00 0.33 0.33 81 1015.2
20260904223033 77 192 0.0 0.0 0.00 0.33 0.33 83 1015.5
20260904221524 77 192 0.0 0.0 0.00 0.33 0.33 84 1015.4
20260904220018 77 205 0.0 0.0 0.00 0.33 0.33 81 1015.2
20260904214927 78 138 0.0 0.0 0.00 0.33 0.33 79 1014.4
20260904213018 78 175 0.0 5.0 0.00 0.33 0.33 78 1013.8
20260904211531 78 195 2.0 8.0 0.00 0.33 0.33 77 1013.4
20260904210030 79 142 0.0 3.0 0.00 0.33 0.33 77 1014.7
20260904204531 80 200 0.0 2.0 0.00 0.33 0.33 76 1015.4
20260904203026 80 140 0.0 2.0 0.00 0.33 0.33 76 1016.0
20260904201518 81 322 0.0 0.0 0.00 0.33 0.33 75 1016.2
20260904200025 82 322 0.0 2.0 0.00 0.33 0.33 71 1016.4
20260904194515 83 350 1.0 2.0 0.00 0.33 0.33 74 1016.6
20260904193034 81 335 0.0 3.0 0.00 0.33 0.33 77 1016.8
20260904191536 80 360 2.0 3.0 0.00 0.33 0.33 79 1016.9
20260904190030 79 352 0.0 3.0 0.00 0.33 0.33 81 1017.2
20260904184531 77 5 1.0 5.0 0.00 0.33 0.33 86 1017.6
20260904183021 77 5 0.0 3.0 0.00 0.33 0.33 86 1017.4
20260904181515 77 346 0.0 0.0 0.06 0.33 0.33 92 1017.8
20260904180016 77 5 0.0 2.0 0.08 0.33 0.33 92 1017.8
20260904174531 77 360 0.0 0.0 0.11 0.33 0.33 93 1017.6
20260904173035 76 239 0.0 2.0 0.11 0.33 0.33 92 1017.2
20260904171537 77 221 0.0 0.0 0.05 0.27 0.27 93 1018.1
20260904170026 77 175 0.0 1.0 0.04 0.25 0.25 93 1018.0
20260904164523 77 234 0.0 0.0 0.09 0.22 0.22 93 1018.5
20260904163021 77 170 0.0 0.0 0.10 0.22 0.22 92 1018.1
20260904161516 77 263 0.0 0.0 0.11 0.22 0.22 91 1018.5
20260904160036 77 245 1.0 3.0 0.10 0.21 0.21 92 1018.6
20260904154533 78 319 0.0 0.0 0.13 0.13 0.13 92 1018.6
20260904153038 78 317 0.0 0.0 0.12 0.12 0.12 90 1018.2
20260904151526 79 317 0.0 0.0 0.11 0.11 0.11 88 1018.0
20260904150036 81 317 0.0 2.0 0.11 0.11 0.11 82 1018.1
20260904144519 82 352 0.0 2.0 0.00 0.00 0.00 79 1018.0
20260904143028 81 270 0.0 0.0 0.00 0.00 0.00 79 1017.6
20260904141511 80 188 0.0 2.0 0.00 0.00 0.00 81 1017.3
20260904140008 79 184 0.0 2.0 0.00 0.00 0.00 82 1017.1
20260904134531 78 215 0.0 2.0 0.00 0.00 0.00 84 1017.2
20260904133030 77 155 0.0 0.0 0.00 0.00 0.00 85 1017.3
20260904131527 76 188 0.0 2.0 0.00 0.00 0.00 86 1017.5
20260904130023 75 113 0.0 2.0 0.00 0.00 0.00 88 1017.5
20260904124515 74 142 0.0 2.0 0.00 0.00 0.00 89 1017.7
20260904123014 73 163 0.0 0.0 0.00 0.00 0.00 91 1017.8
20260904121511 73 143 0.0 0.0 0.00 0.00 0.00 92 1017.7
20260904120030 72 176 0.0 0.0 0.00 0.00 0.00 93 1017.5
20260904114538 72 153 0.0 1.0 0.00 0.00 0.00 93 1017.3
20260904113037 71 140 0.0 0.0 0.00 0.00 0.00 93 1017.1
20260904111526 71 139 0.0 0.0 0.00 0.00 0.00 94 1016.8
20260904110019 71 125 0.0 0.0 0.00 0.00 0.00 93 1016.8
20260904104516 71 252 0.0 0.0 0.00 0.00 0.00 93 1016.6
20260904103015 71 252 0.0 0.0 0.00 0.00 0.00 93 1016.4
20260904101534 71 252 0.0 0.0 0.00 0.00 0.00 92 1016.2
20260904100029 71 252 0.0 0.0 0.00 0.00 0.00 92 1016.2
20260904094534 71 252 0.0 0.0 0.00 0.00 0.00 92 1016.3
20260904093026 71 252 0.0 0.0 0.00 0.00 0.00 91 1016.2
20260904091523 71 252 0.0 0.0 0.00 0.00 0.00 91 1016.1
20260904090016 71 252 0.0 0.0 0.00 0.00 0.00 91 1016.0
20260904084531 72 252 0.0 0.0 0.00 0.00 0.00 90 1016.0
20260904083035 72 252 0.0 0.0 0.00 0.00 0.00 90 1016.0
20260904081531 72 169 0.0 0.0 0.00 0.00 0.00 90 1016.1
20260904080028 71 261 0.0 0.0 0.00 0.00 0.00 90 1016.1
20260904074544 72 261 0.0 0.0 0.00 0.00 0.00 89 1016.3
20260904073023 72 261 0.0 0.0 0.00 0.00 0.00 88 1016.4
20260904071516 72 249 0.0 0.0 0.00 0.00 0.00 87 1016.4
20260904070033 73 173 0.0 0.0 0.00 0.00 0.00 87 1016.5
20260904064535 73 173 0.0 0.0 0.00 0.00 0.00 86 1016.5
20260904063034 73 184 0.0 2.0 0.00 0.00 0.00 86 1016.5
20260904061532 73 198 0.0 0.0 0.00 0.00 0.00 85 1016.6
20260904060029 73 203 0.0 2.0 0.00 0.00 0.00 85 1016.6
20260904054528 73 223 0.0 2.0 0.00 0.00 0.00 85 1016.8
20260904053033 73 180 0.0 0.0 0.00 0.00 0.00 84 1016.8
20260904051538 73 169 0.0 0.0 0.00 0.00 0.00 84 1017.0
20260904050035 73 185 0.0 2.0 0.00 0.00 0.00 83 1017.2
20260904044532 74 175 0.0 2.0 0.00 0.00 0.00 83 1017.2
20260904043031 74 178 1.0 4.0 0.00 0.00 0.00 83 1017.3
20260904041505 74 169 0.0 0.0 0.00 0.00 0.00 82 1017.2
20260904040009 75 123 0.0 0.0 0.00 0.00 0.00 82 1017.2
20260904034508 75 159 0.0 2.0 0.00 0.00 0.00 81 1017.4
20260904033008 76 152 0.0 0.0 0.00 0.00 0.00 80 1017.4